Location: Douglynne Woods
(38.3490°N, 75.2124°W)
Time: 23:44:42
(UTC+00:00)

Daily predictions for brighter satellites

Satellite Brightness Start Highest point End
(mag) Time Altitude Azimuth Time Altitude Azimuth Time Altitude Azimuth
Okean 2 4.0 23:20:59 10° N 23:24:50 35° ENE 23:28:40 10° SE
Cosmos 1898 Rocket 3.4 23:24:14 10° SSW 23:29:23 78° ESE 23:34:34 10° NNE
Cosmos 1975 2.8 23:30:28 10° S 23:34:29 65° E 23:38:33 10° NNE
CSL-04 Rocket 4.0 23:31:13 10° SE 23:36:20 46° ENE 23:41:32 10° N
CZ-4 R/B 1.4 23:32:16 10° SSE 23:36:29 79° ENE 23:40:42 10° N
Cosmos 1603 3.9 23:31:23 10° NNW 23:36:53 50° ENE 23:42:18 10° SE
Cosmos 1782 Rocket 3.6 23:33:22 10° S 23:37:39 55° E 23:42:00 10° NNE
Cosmos 1908 Rocket 3.9 23:35:31 10° SSW 23:39:49 71° W 23:44:12 10° N
NOSS 2-2 (C) 3.3 23:36:36 10° SSW 23:40:00 45° ESE 23:43:28 10° NE
Cosmos 1544 3.7 23:37:21 10° SSW 23:40:58 61° W 23:44:36 10° N
Cosmos 858 Rocket 4.4 23:37:11 10° S 23:42:23 72° ESE 23:47:36 10° NNE
CZ-2C R/B 1.6 23:41:38 10° WSW 23:45:03 39° S 23:47:43 14° ESE
Cosmos 807 4.2 23:45:04 10° S 23:48:00 61° E 23:51:21 10° NNE
Cosmos 1842 3.1 23:51:10 10° N 23:55:03 78° E 23:58:54 10° S
